This is the latest recevied weather packets stored in our database for station/object KI7JYE. If no packets are shown the sender has not sent any weather packets the latest 10 day(s).
| Time | Temp. | Humidity | Pressure | Rain* | Wind** | Luminosity | Snow |
|---|---|---|---|---|---|---|---|
| 1777838287 | 30° C | 40% | 1008.7 hPa | 0 mm | - | 627 W/m² | - |
| 1777837983 | 30° C | 37% | 1008.7 hPa | 0 mm | - | 658 W/m² | - |
| 1777837681 | 30° C | 39% | 1008.8 hPa | 0 mm | - | 686 W/m² | - |
| 1777837376 | 29.44° C | 39% | 1008.7 hPa | 0 mm | - | 686 W/m² | - |
| 1777837073 | 29.44° C | 37% | 1009.2 hPa | 0 mm | - | 690 W/m² | - |
| 1777836769 | 30° C | 36% | 1009 hPa | 0 mm | - | 696 W/m² | - |
| 1777836465 | 30.56° C | 38% | 1008.8 hPa | 0 mm | - | 693 W/m² | - |
| 1777836160 | 29.44° C | 40% | 1009.1 hPa | 0 mm | - | 697 W/m² | - |
| 1777835857 | 29.44° C | 38% | 1009.1 hPa | 0 mm | - | 710 W/m² | - |
| 1777835554 | 29.44° C | 42% | 1009.1 hPa | 0 mm | - | 725 W/m² | - |
| 1777835251 | 28.33° C | 42% | 1009.3 hPa | 0 mm | - | 735 W/m² | - |
| 1777834948 | 28.89° C | 42% | 1009.1 hPa | 0 mm | - | 735 W/m² | - |
| 1777834645 | 28.89° C | 43% | 1009 hPa | 0 mm | - | 746 W/m² | - |
| 1777834341 | 27.78° C | 44% | 1009.4 hPa | 0 mm | - | 748 W/m² | - |
| 1777834035 | 27.78° C | 45% | 1009.2 hPa | 0 mm | - | 760 W/m² | - |
| 1777833732 | 27.78° C | 45% | 1009.5 hPa | 0 mm | - | 768 W/m² | - |
| 1777833428 | 27.78° C | 44% | 1009.5 hPa | 0 mm | - | 761 W/m² | - |
| 1777833126 | 27.78° C | 45% | 1009.5 hPa | 0 mm | - | 764 W/m² | - |
| 1777832824 | 27.22° C | 45% | 1009.6 hPa | 0 mm | - | 761 W/m² | - |
| 1777832522 | 26.67° C | 45% | 1009.5 hPa | 0 mm | - | 761 W/m² | - |
| 1777832218 | 26.67° C | 48% | 1009.7 hPa | 0 mm | - | 760 W/m² | - |
| 1777831915 | 26.67° C | 48% | 1009.5 hPa | 0 mm | - | 766 W/m² | - |
| 1777831612 | 26.67° C | 45% | 1009.9 hPa | 0 mm | - | 765 W/m² | - |
| 1777831310 | 26.67° C | 47% | 1009.7 hPa | 0 mm | - | 756 W/m² | - |
| 1777831007 | 26.67° C | 46% | 1009.9 hPa | 0 mm | - | 757 W/m² | - |
* Rain latest hour (hover to see other rain measurements)
** Current wind speed in m/s (hover to see current wind gust speed)